Home   Weather   Bissau   Past weeks

Flag for Guinea-Bissau Past Weather in Bissau, Guinea-Bissau — Yesterday and Last 2 Weeks

Now
79 °F

Passing clouds.


Feels Like: 83 °F
Forecast: 77 / 88 °F
Wind: No wind

Location: Ziguinchor Airport

Current Time: Jul 27, 2017 at 7:05:58 am

Latest Report: Jul 27, 2017 at 6:00 am


Visibility: 5 mi

Pressure: 29.89 "Hg

Humidity: 94%

Dew Point: 77 °F

Location of BissauLocation

Past Weather in Bissau — Graph

°F

Bissau Temperature Yesterday

Maximum temperature yesterday: 93 °F (at 3:00 pm)
Minimum temperature yesterday: 75 °F (at 5:00 am)
Average temperature yesterday: 82 °F

High & Low Weather Summary for the Past Weeks

 TemperatureHumidityPressure
High93 °F (Jul 18, 4:00 pm)100% (Jul 13, 12:00 am)30.09 "Hg (Jul 13, 12:00 am)
Low72 °F (Jul 21, 4:00 am)43% (Jul 24, 3:00 pm)29.83 "Hg (Jul 27, 1:30 am)
Average80 °F89%29.96 "Hg
* Reported Jul 12 6:00 am — Jul 27 6:00 am, Bissau. Weather by CustomWeather, © 2017

Note: Actual official high and low records may vary slightly from our data, if they occured in-between our weather recording intervals... More about our weather records

Advertising

Bissau Weather History for the Previous 24 Hours

Scroll right to see more
 ConditionsComfort  
Time TempWeatherWind HumidityBarometerVisibility
6:00 am
Thu, Jul 27
79 °FPassing clouds.No wind94%29.89 "Hg5 mi
5:00 am79 °FClear.No wind94%29.86 "Hg5 mi
4:00 am77 °FPassing clouds.No wind100%29.89 "Hg5 mi
3:00 am79 °FPassing clouds.2 mph94%29.89 "Hg5 mi
2:00 am81 °FClear.No wind89%29.89 "Hg5 mi
1:30 am81 °FClear.No wind89%29.83 "Hg5 mi
12:30 am81 °FClear.5 mph89%29.92 "Hg5 mi
11:00 pm
Wed, Jul 26
81 °FPassing clouds.5 mph89%29.92 "Hg5 mi
10:00 pm81 °FPassing clouds.2 mph89%29.92 "HgN/A
9:00 pm82 °FPassing clouds.5 mph84%29.89 "HgN/A
8:00 pm82 °FPassing clouds.7 mph84%29.89 "HgN/A
7:30 pm86 °FScattered clouds.14 mph79%29.89 "HgN/A
6:00 pm88 °FPartly sunny.12 mph75%29.86 "HgN/A
3:00 pm93 °FPartly sunny.12 mph63%29.89 "HgN/A
2:00 pm91 °FPartly sunny.9 mph67%29.92 "HgN/A
1:00 pm91 °FPartly sunny.2 mph67%29.92 "HgN/A
12:00 pm90 °FPartly sunny.5 mph67%29.95 "HgN/A
11:00 am86 °FPartly sunny.5 mph79%29.95 "HgN/A
9:00 am82 °FScattered clouds.5 mph89%29.95 "HgN/A
8:00 am77 °FPassing clouds.5 mph100%29.95 "HgN/A
7:00 am75 °FPassing clouds.2 mph100%29.92 "HgN/A
Weather by CustomWeather, © 2017

See weather overviewHow to use our weather pages